Tiempo cada hora Abryutino

Hoy, 22 Octubre, Jueves

Tiempo Temperatura Precipitaciones Viento Presión Humedad
00:00 +3°C° 0.1 mm 3 mps 748 mmHg 96%
01:00 +3°C° 0.1 mm 3 mps 748 mmHg 96%
02:00 +4°C° 0 mm 2 mps 748 mmHg 96%
03:00 +4°C° 0 mm 2 mps 748 mmHg 96%
04:00 +4°C° 0 mm 2 mps 748 mmHg 96%
05:00 +5°C° 0 mm 1 mps 748 mmHg 97%
06:00 +5°C° 0 mm 2 mps 748 mmHg 96%
07:00 +5°C° 0 mm 2 mps 748 mmHg 95%
08:00 +4°C° 0 mm 3 mps 748 mmHg 94%
09:00 +5°C° 0 mm 3 mps 748 mmHg 89%
10:00 +7°C° 0 mm 3 mps 748 mmHg 85%
11:00 +7°C° 0 mm 4 mps 747 mmHg 80%
12:00 +7°C° 0 mm 4 mps 747 mmHg 79%
13:00 +7°C° 0 mm 4 mps 747 mmHg 78%
14:00 +7°C° 0 mm 4 mps 746 mmHg 77%
15:00 +7°C° 0.3 mm 5 mps 746 mmHg 81%
16:00 +7°C° 0.3 mm 5 mps 745 mmHg 86%
17:00 +6°C° 0.3 mm 5 mps 744 mmHg 90%
18:00 +6°C° 0.3 mm 5 mps 743 mmHg 89%
19:00 +6°C° 0.3 mm 5 mps 743 mmHg 89%
20:00 +7°C° 0.3 mm 5 mps 743 mmHg 88%
21:00 +7°C° 0 mm 5 mps 742 mmHg 88%
22:00 +7°C° 0 mm 6 mps 741 mmHg 88%
23:00 +7°C° 0 mm 6 mps 741 mmHg 88%

Mañana, 23 Octubre, Viernes

Tiempo Temperatura Precipitaciones Viento Presión Humedad
00:00 +8°C° 0 mm 6 mps 741 mmHg 88%
01:00 +8°C° 0 mm 6 mps 741 mmHg 89%
02:00 +9°C° 0 mm 7 mps 741 mmHg 89%
03:00 +9°C° 0 mm 7 mps 740 mmHg 88%
04:00 +10°C° 0 mm 7 mps 740 mmHg 87%
05:00 +10°C° 0 mm 7 mps 740 mmHg 85%
06:00 +10°C° 0 mm 7 mps 741 mmHg 86%
07:00 +10°C° 0 mm 6 mps 741 mmHg 86%
08:00 +10°C° 0 mm 6 mps 741 mmHg 86%
09:00 +10°C° 0 mm 6 mps 741 mmHg 84%
10:00 +10°C° 0 mm 6 mps 741 mmHg 82%
11:00 +10°C° 0 mm 6 mps 742 mmHg 80%
12:00 +11°C° 0 mm 6 mps 742 mmHg 79%
13:00 +11°C° 0 mm 6 mps 741 mmHg 79%
14:00 +11°C° 0 mm 6 mps 741 mmHg 78%
15:00 +12°C° 0.1 mm 5 mps 741 mmHg 82%
16:00 +12°C° 0.1 mm 5 mps 740 mmHg 86%
17:00 +11°C° 0.1 mm 4 mps 740 mmHg 90%
18:00 +10°C° 1.2 mm 5 mps 740 mmHg 90%
19:00 +11°C° 1.2 mm 6 mps 739 mmHg 91%
20:00 +11°C° 1.2 mm 7 mps 739 mmHg 91%
21:00 +11°C° 0.1 mm 6 mps 739 mmHg 90%
22:00 +11°C° 0.1 mm 6 mps 739 mmHg 89%
23:00 +11°C° 0.1 mm 6 mps 739 mmHg 89%

Pasado mañana, 24 Octubre, Sábado

Tiempo Temperatura Precipitaciones Viento Presión Humedad
00:00 +10°C° 0 mm 5 mps 739 mmHg 90%
01:00 +9°C° 0 mm 5 mps 740 mmHg 91%
02:00 +9°C° 0 mm 5 mps 740 mmHg 92%
03:00 +8°C° 0 mm 5 mps 740 mmHg 93%
04:00 +8°C° 0 mm 4 mps 740 mmHg 93%
05:00 +7°C° 0 mm 4 mps 741 mmHg 94%
06:00 +8°C° 0 mm 4 mps 741 mmHg 91%
07:00 +8°C° 0 mm 4 mps 741 mmHg 88%
08:00 +8°C° 0 mm 4 mps 742 mmHg 85%
09:00 +8°C° 0 mm 4 mps 742 mmHg 83%
10:00 +10°C° 0 mm 4 mps 742 mmHg 80%
11:00 +10°C° 0 mm 4 mps 742 mmHg 78%
12:00 +10°C° 0 mm 4 mps 743 mmHg 78%
13:00 +10°C° 0 mm 4 mps 743 mmHg 77%
14:00 +10°C° 0 mm 4 mps 743 mmHg 77%
15:00 +10°C° 0 mm 3 mps 743 mmHg 79%
16:00 +9°C° 0 mm 3 mps 743 mmHg 82%
17:00 +9°C° 0 mm 2 mps 743 mmHg 85%
18:00 +8°C° 0 mm 2 mps 743 mmHg 86%
19:00 +8°C° 0 mm 2 mps 743 mmHg 87%
20:00 +8°C° 0 mm 2 mps 743 mmHg 88%
21:00 +9°C° 0 mm 1 mps 743 mmHg 87%
22:00 +9°C° 0 mm 1 mps 743 mmHg 87%
23:00 +9°C° 0 mm 1 mps 743 mmHg 87%

, 25 Octubre, Domingo

Tiempo Temperatura Precipitaciones Viento Presión Humedad
00:00 +9°C° 0.8 mm 1 mps 743 mmHg 89%
01:00 +8°C° 0.8 mm 2 mps 743 mmHg 92%
02:00 +8°C° 0.8 mm 2 mps 742 mmHg 94%
03:00 +8°C° 0.3 mm 2 mps 742 mmHg 93%
04:00 +7°C° 0.3 mm 2 mps 742 mmHg 91%
05:00 +7°C° 0.3 mm 2 mps 742 mmHg 90%
06:00 +7°C° 0 mm 2 mps 743 mmHg 89%
07:00 +7°C° 0 mm 3 mps 743 mmHg 88%
08:00 +7°C° 0 mm 3 mps 743 mmHg 87%
09:00 +7°C° 0 mm 3 mps 743 mmHg 87%
10:00 +8°C° 0 mm 3 mps 743 mmHg 86%
11:00 +8°C° 0 mm 4 mps 744 mmHg 86%
12:00 +8°C° 0.1 mm 4 mps 744 mmHg 85%
13:00 +8°C° 0.1 mm 4 mps 744 mmHg 84%
14:00 +9°C° 0.1 mm 5 mps 744 mmHg 82%
15:00 +8°C° 0 mm 4 mps 745 mmHg 84%
16:00 +7°C° 0 mm 4 mps 745 mmHg 85%
17:00 +6°C° 0 mm 4 mps 746 mmHg 86%
18:00 +6°C° 0 mm 4 mps 746 mmHg 87%
19:00 +6°C° 0 mm 4 mps 747 mmHg 87%
20:00 +5°C° 0 mm 4 mps 748 mmHg 88%
21:00 +5°C° 0 mm 3 mps 748 mmHg 90%
22:00 +5°C° 0 mm 3 mps 749 mmHg 91%
23:00 +4°C° 0 mm 3 mps 749 mmHg 93%

25 Octubre, Domingo

Tiempo Temperatura Precipitaciones Viento Presión Humedad
00:00 +9°C° 0.8 mm 1 mps 743 mmHg 89%
01:00 +8°C° 0.8 mm 2 mps 743 mmHg 92%
02:00 +8°C° 0.8 mm 2 mps 742 mmHg 94%
03:00 +8°C° 0.3 mm 2 mps 742 mmHg 93%
04:00 +7°C° 0.3 mm 2 mps 742 mmHg 91%
05:00 +7°C° 0.3 mm 2 mps 742 mmHg 90%
06:00 +7°C° 0 mm 2 mps 743 mmHg 89%
07:00 +7°C° 0 mm 3 mps 743 mmHg 88%
08:00 +7°C° 0 mm 3 mps 743 mmHg 87%
09:00 +7°C° 0 mm 3 mps 743 mmHg 87%
10:00 +8°C° 0 mm 3 mps 743 mmHg 86%
11:00 +8°C° 0 mm 4 mps 744 mmHg 86%
12:00 +8°C° 0.1 mm 4 mps 744 mmHg 85%
13:00 +8°C° 0.1 mm 4 mps 744 mmHg 84%
14:00 +9°C° 0.1 mm 5 mps 744 mmHg 82%
15:00 +8°C° 0 mm 4 mps 745 mmHg 84%
16:00 +7°C° 0 mm 4 mps 745 mmHg 85%
17:00 +6°C° 0 mm 4 mps 746 mmHg 86%
18:00 +6°C° 0 mm 4 mps 746 mmHg 87%
19:00 +6°C° 0 mm 4 mps 747 mmHg 87%
20:00 +5°C° 0 mm 4 mps 748 mmHg 88%
21:00 +5°C° 0 mm 3 mps 748 mmHg 90%
22:00 +5°C° 0 mm 3 mps 749 mmHg 91%
23:00 +4°C° 0 mm 3 mps 749 mmHg 93%

26 Octubre, Lunes

Tiempo Temperatura Precipitaciones Viento Presión Humedad
00:00 +4°C° 0 mm 3 mps 750 mmHg 94%
01:00 +4°C° 0 mm 2 mps 750 mmHg 94%
02:00 +4°C° 0 mm 2 mps 750 mmHg 95%
03:00 +4°C° 0 mm 2 mps 751 mmHg 95%
04:00 +3°C° 0 mm 2 mps 751 mmHg 95%
05:00 +3°C° 0 mm 2 mps 752 mmHg 95%
06:00 +4°C° 0 mm 1 mps 752 mmHg 94%
07:00 +5°C° 0 mm 1 mps 753 mmHg 93%
08:00 +5°C° 0 mm 1 mps 753 mmHg 92%
09:00 +6°C° 0 mm 1 mps 753 mmHg 86%
10:00 +7°C° 0 mm 1 mps 753 mmHg 80%
11:00 +9°C° 0 mm 1 mps 754 mmHg 74%
12:00 +8°C° 0 mm 0 mps 754 mmHg 72%
13:00 +8°C° 0 mm 0 mps 754 mmHg 70%
14:00 +9°C° 0 mm 0 mps 754 mmHg 67%
15:00 +8°C° 0 mm 0 mps 754 mmHg 72%
16:00 +7°C° 0 mm 0 mps 754 mmHg 77%
17:00 +6°C° 0 mm 0 mps 754 mmHg 81%
18:00 +6°C° 0 mm 1 mps 754 mmHg 82%
19:00 +6°C° 0 mm 1 mps 754 mmHg 83%
20:00 +6°C° 0 mm 1 mps 755 mmHg 84%
21:00 +4°C° 0 mm 2 mps 755 mmHg 85%
22:00 +4°C° 0 mm 2 mps 755 mmHg 85%
23:00 +4°C° 0 mm 2 mps 755 mmHg 86%

27 Octubre, Martes

Tiempo Temperatura Precipitaciones Viento Presión Humedad
00:00 +3°C° 0 mm 2 mps 755 mmHg 86%
01:00 +3°C° 0 mm 2 mps 755 mmHg 86%
02:00 +3°C° 0 mm 2 mps 755 mmHg 86%
03:00 +3°C° 0 mm 2 mps 755 mmHg 86%
04:00 +3°C° 0 mm 2 mps 755 mmHg 86%
05:00 +2°C° 0 mm 2 mps 756 mmHg 86%
06:00 +2°C° 0 mm 3 mps 756 mmHg 84%
07:00 +2°C° 0 mm 3 mps 756 mmHg 83%
08:00 +3°C° 0 mm 3 mps 756 mmHg 81%
09:00 +4°C° 0 mm 4 mps 756 mmHg 76%
10:00 +5°C° 0 mm 4 mps 756 mmHg 71%
11:00 +7°C° 0 mm 4 mps 756 mmHg 66%
12:00 +7°C° 0 mm 4 mps 755 mmHg 66%
13:00 +7°C° 0 mm 4 mps 755 mmHg 65%
14:00 +8°C° 0 mm 4 mps 755 mmHg 65%
15:00 +7°C° 0 mm 4 mps 755 mmHg 68%
16:00 +7°C° 0 mm 3 mps 755 mmHg 71%
17:00 +5°C° 0 mm 3 mps 755 mmHg 75%
18:00 +5°C° 0 mm 3 mps 754 mmHg 74%
19:00 +5°C° 0 mm 4 mps 754 mmHg 74%
20:00 +5°C° 0 mm 4 mps 754 mmHg 74%
21:00 +5°C° 0 mm 4 mps 754 mmHg 75%
22:00 +5°C° 0 mm 4 mps 754 mmHg 76%
23:00 +6°C° 0 mm 4 mps 754 mmHg 77%
Mostrar más

Necesitamos Su Consentimiento

Meteoprog y nuestros Proveedores de Servicios pueden almacenar y acceder a sus datos personales como cookies, identificadores de dispositivo u otras tecnologías similares de su dispositivo y procesar dichos datos para personalizar contenido y anuncios, además de ofrecer funciones de redes sociales y analizar el tráfico.

  • Almacenar y/o acceder a información en su dispositivo

    Se puede almacenar o acceder a cookies, identificadores de dispositivo u otra información de su dispositivo para los fines anteriormente indicados.

  • Anuncios y contenido personalizados, medición de anuncios y contenido, percepciones del público, y desarrollo de productos

    Los anuncios y el contenido pueden personalizarse en base a su perfil. Se pueden añadir más datos para personalizar mejor los anuncios y contenidos. Se puede medir el rendimiento de los anuncios y contenidos. Se puede obtener la percepción sobre el público que ha visto los anuncios y contenidos. Dichos datos pueden usarse para desarrollar o mejorar la experiencia del usuario, sistemas y software.

Al hacer clic en ‘Estoy De Acuerdo’ usted permitirá el uso de las cookies, identificadores de dispositivo, balizas web u otras tecnologías similares indicadas. Su configuración puede cambiarse desde el navegador de su dispositivo.

Para ciertos fines, los intereses legítimos pueden ser considerados por encima del consentimiento. Puede leer más sobre ello en nuestra Política de Privacidad y Cookies.